#timestamp,LO_Frequency,Hit,StdDev 
1687892415.4,286047018.3,N
1687892435.3,286047016.4,N
1687892455.1,286047019.1,N
1687892456.0,286047019.1,N
1687892475.8,286047018.6,N
1687892495.7,286047016.4,N
1687892515.5,286047012.6,N
1687892535.3,286047012.9,N
1687892555.2,286047009.8,N
1687892575.0,286047008.4,N
1687892575.9,286047008.4,N
1687892595.8,286047012.1,N
1687892615.6,286047011.0,N
1687892635.4,286047013.9,N
1687892655.3,286047010.0,N
1687892675.1,286047007.8,N
1687892695.8,286047011.8,N
1687892715.7,286047018.7,Y
1687892735.5,286047003.5,P
1687892755.4,286047004.7,N
1687892775.2,286047006.8,N
1687892795.0,286047007.8,N
1687892795.9,286047007.8,N
1687892815.8,286047012.0,Y
1687892835.6,286047011.9,P
1687892855.5,286047011.9,P
1687892875.3,286047014.3,P
1687892895.1,286047018.3,Y
1687892915.9,286047007.5,P
1687892935.7,286047007.8,P
1687892955.5,286047013.8,P
1687892975.4,286047017.2,Y
1687892995.2,286047006.7,P
1687893015.1,286047006.4,P
1687893016.0,286047006.4,P
1687893035.8,286047006.2,Y
1687893055.6,286047004.2,P
1687893075.5,286047006.9,P
1687893095.3,286047012.4,P
1687893115.1,286047015.5,Y
1687893135.9,286047010.8,P
1687893155.7,286047011.4,P
1687893175.6,286047009.3,P
1687893195.4,286047010.6,Y
1687893215.2,286046998.7,P
1687893235.1,286047000.6,N
1687893236.0,286047000.6,N
1687893255.8,286047000.0,N
1687893275.7,286047003.9,N
1687893295.5,286047004.3,N
1687893315.3,286047003.6,N
1687893335.2,286047009.1,N
1687893355.0,286047014.0,Y
1687893355.9,286047014.0,P
1687893375.8,286047013.8,N
1687893395.6,286047016.4,P
1687893415.4,286047016.2,Y
1687893435.3,286047006.0,P
1687893455.1,286047007.0,N
1687893475.9,286047006.4,N
1687893495.7,286047008.3,Y
1687893515.5,286047002.0,P
1687893535.4,286047002.5,N
1687893555.2,286047000.4,N
1687893575.0,286046996.7,N
1687893575.9,286046996.7,N
1687893595.8,286046998.4,N
1687893615.6,286047000.8,N
1687893635.5,286047000.3,N
1687893655.3,286047003.5,N
1687893675.1,286047005.1,N
1687893695.9,286047010.3,Y
1687893715.7,286047014.9,P
1687893735.5,286047013.8,N
1687893755.4,286047010.8,N
1687893775.2,286047007.6,N
1687893795.1,286047003.1,N
1687893796.0,286047003.1,N
1687893815.8,286047002.3,N
1687893835.6,286047001.2,N
1687893855.5,286046999.8,N
1687893875.3,286047000.2,N
1687893895.1,286047001.6,N
1687893915.9,286047004.0,N
1687893935.7,286047004.2,N
1687893955.6,286047003.1,N
1687893975.4,286047005.7,N
1687893995.3,286047004.6,N
1687894015.1,286047006.1,N
1687894016.0,286047006.1,N
1687894035.8,286047010.0,N
1687894055.7,286047009.2,N
1687894075.5,286047013.8,Y
1687894095.4,286047015.8,P
1687894115.2,286047023.4,P
1687894135.0,286047021.3,N
1687894135.9,286047021.3,Y
1687894155.8,286047005.4,P
1687894175.6,286047010.5,N
1687894195.5,286047013.3,N
1687894215.3,286047013.4,Y
1687894235.1,286047000.0,P
1687894255.9,286047002.3,N
1687894275.7,286046998.8,N
1687894295.5,286047002.4,N
1687894315.4,286047002.1,N
1687894335.2,286047004.5,N
1687894355.1,286047007.5,N
1687894356.0,286047007.5,N
1687894375.8,286047012.0,Y
1687894395.6,286047009.6,P
1687894415.5,286047011.4,P
1687894435.3,286047016.3,P
1687894455.2,286047014.8,Y
1687894475.9,286047002.7,P
1687894495.7,286047001.5,N
1687894515.6,286047000.3,N
1687894535.4,286047001.2,N
1687894555.2,286046997.7,N
1687894575.1,286046999.2,N
1687894576.0,286046999.2,N
1687894595.8,286046998.4,N
1687894615.7,286046999.3,N
1687894635.5,286046997.8,N
1687894655.3,286046996.2,N
1687894675.2,286046993.6,N
1687894695.0,286046996.0,N
1687894695.9,286046996.0,N
1687894715.8,286047003.9,N
1687894735.6,286047002.5,N
1687894755.4,286047001.1,N
1687894775.3,286046996.6,N
1687894795.1,286046996.6,N
1687894815.8,286046998.4,N
1687894835.7,286047000.6,N
1687894855.5,286047002.4,N
1687894875.4,286047003.7,N
1687894895.2,286047001.1,N
1687894915.0,286046997.6,N
1687894915.9,286046997.6,N
1687894935.8,286046994.4,N
1687894955.6,286046991.9,N
1687894975.4,286046990.2,N
1687894995.3,286046988.8,N
1687895015.1,286046987.4,Y
1687895035.9,286046991.5,P
1687895055.7,286046989.3,P
1687895075.5,286046988.8,N
1687895095.4,286046988.7,Y
1687895115.2,286046999.1,P
1687895135.0,286047002.7,N
1687895136.0,286047002.7,N
1687895155.8,286047002.2,N
1687895175.6,286047000.7,N
1687895195.5,286046997.9,N
1687895215.3,286046994.1,N
1687895235.1,286046990.2,N
1687895255.9,286046989.0,N
1687895275.7,286046992.1,N
1687895295.5,286046995.7,N
1687895315.4,286046995.8,N
1687895335.2,286046993.9,N
1687895355.1,286046994.0,N
1687895356.0,286046994.0,N
1687895375.8,286046995.1,N
1687895395.6,286047000.5,N
1687895415.5,286047006.0,N
1687895435.3,286047010.8,N
1687895455.2,286047012.0,N
1687895475.9,286047014.4,N
1687895495.7,286047013.0,N
1687895515.6,286047010.5,N
1687895535.4,286047006.4,N
1687895555.2,286047007.6,N
1687895575.1,286047008.3,N
1687895576.0,286047008.3,N
1687895595.8,286047012.0,N
1687895615.7,286047011.7,N
1687895635.5,286047012.8,N
1687895655.3,286047011.1,N
1687895675.2,286047014.0,N
1687895695.0,286047012.1,N
1687895695.9,286047012.1,N
1687895715.8,286047009.7,N
1687895735.6,286047008.1,N
1687895755.4,286047009.3,N
1687895775.3,286047013.5,N
1687895795.1,286047016.9,N
1687895815.9,286047018.3,N
1687895835.7,286047018.3,N
1687895855.5,286047017.1,N
1687895875.4,286047015.8,N
1687895895.2,286047016.1,N
1687895915.0,286047017.0,N
1687895916.0,286047017.0,Y
1687895935.8,286047005.5,P
1687895955.6,286047002.9,N
1687895975.5,286047004.4,N
1687895995.3,286047007.1,N
